Regional Weather Roundup
Issued by NWS

Home | Current Version | Previous Version | Text Only | Print | Product List | Glossary Off
Versions: 1 2 3 4 5 6 7 8 9 10 11 12 13 14 15 16 17 18 19 20 21 22 23 24 25 26 27 28 29 30 31 32 33 34 35 36 37 38 39 40 41 42 43 44 45 46 47 48 49 50

000
ASUS43 KBIS 261802
RWRND

NORTH DAKOTA REGIONAL WEATHER ROUNDUP
NATIONAL WEATHER SERVICE BISMARCK ND
100 PM CDT TUE JUL 26 2016

NOTE: "FAIR" INDICATES FEW OR NO CLOUDS BELOW 12,000 FEET WITH NO
SIGNIFICANT WEATHER AND/OR OBSTRUCTIONS TO VISIBILITY.


NDZ001>003-009>011-017-261900-
NORTHWEST NORTH DAKOTA

CITY           SKY/WX    TMP DP  RH WIND       PRES   REMARKS
WILLISTON      CLOUDY    78  61  55 N12       30.09R
6HR MIN TEMP:  64; 6HR MAX TEMP:  78;

MINOT          CLOUDY    82  64  54 NW5       30.05S
MINOT AFB      CLOUDY    78  64  63 N8        30.04F
$$

NDZ018>021-031>035-040>046-261900-
SOUTHWEST NORTH DAKOTA

CITY           SKY/WX    TMP DP  RH WIND       PRES   REMARKS
BISMARCK       LGT RAIN  73  68  84 N13       30.01F
6HR MIN TEMP:  69; 6HR MAX TEMP:  77; 6HR PCP: TRACE;

DICKINSON      CLOUDY    69  64  84 N10       30.04R
GARRISON         N/A     75  69  81 NW8       30.05F
6HR MIN TEMP:  66; 6HR MAX TEMP:  76;

HETTINGER ARPT CLOUDY    77  54  44 NE15      30.02R
$$

NDZ004>008-012>016-024-026-027-054-261900-
NORTHEAST NORTH DAKOTA

CITY           SKY/WX    TMP DP  RH WIND       PRES   REMARKS
GRAND FORKS    MOSUNNY   85  64  49 N6        29.97R
GRND FRKS AFB  SUNNY     84  63  49 NE7       29.98R
DEVILS LAKE    SUNNY     82  60  47 VRB3      30.02S
$$

NDZ022-023-025-028>030-036>039-047>053-261900-
SOUTHEAST NORTH DAKOTA

CITY           SKY/WX    TMP DP  RH WIND       PRES   REMARKS
FARGO          MOSUNNY   80  68  66 CALM      29.95F
6HR MIN TEMP:  69; 6HR MAX TEMP:  80; 6HR PCP:  0.04;

JAMESTOWN      CLOUDY    82  65  56 W3        29.98S
$$




USA.gov is the U.S. government's official web portal to all federal, state and local government web resources and services.